Wetbulb
52.29 56.07 59.73 60.45 61.11 61.34 61.34 61.29 61.37 61.85 62.12 63.06 62.23 62.15 62.21 61.92 62.23 62.45 61.97 61.50 62.03 62.16 62.71 63.04 63.48 64.38 64.78 63.86 64.86 65.80 66.50 66.88 66.89 66.62 66.50 66.99 66.33 67.49 69.85 70.79 71.29 71.98 72.01
52.33 54.48 57.59 60.12 60.51 60.60 60.65 60.44 60.56 60.71 61.02 60.91 60.83 61.55 60.43 60.14 60.92 60.90 60.53 61.05 60.74 61.71 61.54 62.07 62.81 63.59 64.23 64.85 63.42 63.97 64.71 65.66 66.37 66.65 66.19 65.66 64.50 65.21 67.59 69.40 70.08 71.20 72.04
51.45 52.77 55.24 59.13 59.06 59.25 59.26 59.52 60.11 60.11 60.21 59.87 59.89 60.09 59.78 60.50 60.24 59.52 60.19 59.67 60.83 60.74 61.15 62.02 61.83 61.97 62.14 63.56 64.27 64.16 63.51 64.31 64.85 65.48 65.72 65.15 63.06 63.74 65.50 67.74 69.06 70.42 71.27
51.04 52.16 54.79 57.84 57.80 57.86 58.29 58.33 58.80 59.38 59.06 58.94 59.07 59.31 59.72 59.92 59.90 59.13 59.11 58.82 60.11 59.76 60.66 60.74 61.02 60.67 61.51 61.58 62.46 63.69 63.56 64.37 64.23 62.77 63.13 62.75 63.57 63.31 64.33 66.14 68.12 69.53 70.38
50.20 51.47 54.35 56.69 56.88 56.95 57.43 58.19 57.66 57.45 57.61 58.84 58.93 59.02 59.20 59.00 58.52 57.66 58.01 57.91 58.57 58.83 59.39 60.03 60.25 60.11 60.25 60.68 61.14 62.13 63.12 63.01 62.83 60.27 61.04 62.12 62.42 63.54 63.61 64.79 65.77 67.67 69.16
49.49 50.24 52.72 55.08 55.35 55.61 56.40 57.18 56.98 57.43 57.59 57.65 57.61 57.64 57.88 57.02 56.19 56.78 56.93 57.18 57.14 57.68 58.01 58.48 58.64 58.62 59.16 59.20 59.48 60.41 61.33 61.84 60.78 57.44 58.96 59.46 59.38 62.69 63.47 64.23 64.66 66.41 68.00
48.97 49.39 49.37 52.96 53.67 53.91 54.81 56.00 55.97 56.30 56.20 56.12 56.06 55.56 55.80 54.78 55.18 55.02 55.85 55.85 56.32 56.77 56.87 56.96 57.27 58.18 58.21 58.56 59.03 58.78 60.09 59.84 57.56 57.76 56.67 57.32 57.69 59.24 61.95 63.86 64.92 65.58 66.96
48.31 48.67 48.64 49.30 50.81 51.52 53.41 54.56 55.01 55.29 55.11 54.19 53.84 53.73 53.11 52.15 52.61 52.77 53.45 53.67 54.84 55.13 55.05 55.32 56.03 56.59 56.64 56.57 56.91 58.12 57.14 56.47 54.30 55.51 55.73 55.30 56.89 58.13 60.52 62.42 64.07 64.91 66.05
48.23 47.97 48.53 48.79 48.83 48.80 50.65 52.80 52.95 53.14 52.68 52.04 51.54 52.01 50.76 49.60 49.77 50.48 50.79 51.55 53.39 53.39 53.61 53.97 53.87 54.27 54.96 55.15 55.96 54.77 54.05 54.08 53.24 53.13 52.52 52.47 54.73 56.34 59.23 61.00 62.55 63.94 64.98
47.78 47.74 48.01 48.38 48.18 48.92 48.83 49.81 49.86 50.43 50.30 49.71 49.34 49.66 47.92 46.85 47.62 48.79 48.97 50.73 51.68 51.69 52.09 51.89 52.51 52.09 52.57 52.99 51.79 51.88 52.15 52.39 51.17 50.73 50.90 51.40 53.18 55.40 58.16 59.70 61.21 62.73 63.64
47.02 47.47 47.80 47.57 48.05 48.28 48.33 47.84 47.58 47.70 47.42 47.08 47.30 46.89 46.92 46.72 46.72 47.19 47.66 49.58 50.37 50.52 50.61 50.32 50.71 50.98 50.44 49.33 49.17 49.77 50.13 49.43 49.55 49.63 50.33 51.63 52.56 54.85 57.08 58.97 60.25 61.52 62.46
45.38 46.53 47.44 47.59 47.49 47.87 47.34 48.20 48.02 47.59 47.53 47.11 46.95 46.78 46.90 46.56 46.44 46.46 46.90 47.89 48.57 49.08 49.14 49.31 49.33 49.43 48.41 47.98 47.98 48.62 48.52 48.84 48.74 49.23 49.71 51.01 52.15 54.45 56.11 57.40 59.05 60.30 60.85
45.30 46.56 46.52 47.10 47.61 47.38 47.33 47.67 47.89 47.78 47.62 47.36 46.98 47.01 47.00 46.78 46.86 46.57 46.41 46.55 46.90 47.50 47.06 47.65 47.79 47.65 47.26 47.34 47.26 47.66 47.60 47.62 48.24 49.00 49.75 50.69 51.93 53.60 55.17 56.31 57.43 58.81 59.62
44.72 45.38 46.13 46.88 47.26 47.39 47.66 47.27 47.25 47.07 47.13 46.99 47.02 46.96 46.47 46.07 45.97 45.71 45.75 46.14 46.44 47.02 46.72 47.10 46.96 47.09 46.89 46.89 46.94 46.54 46.81 47.08 47.86 48.51 49.32 50.40 51.22 52.87 54.27 55.52 56.72 58.06 59.23
44.13 44.91 45.55 46.52 46.94 46.97 47.08 47.13 47.02 46.77 46.91 46.80 46.80 46.89 46.37 45.67 45.20 45.46 45.66 46.29 46.69 47.19 47.00 46.48 46.40 46.18 46.16 46.20 46.51 46.08 46.03 46.58 47.43 47.93 48.46 50.19 50.82 51.73 53.14 54.52 55.89 57.29 58.40
44.26 44.42 45.45 45.91 46.72 47.07 46.79 46.79 46.72 46.98 46.64 46.19 46.19 45.92 45.64 45.47 45.05 45.10 45.62 46.09 46.56 46.52 45.64 45.69 45.05 44.90 44.41 45.20 45.41 46.19 45.96 46.71 47.36 47.69 48.16 48.71 50.27 50.89 52.33 53.46 54.47 56.42 58.10
44.78 44.46 44.79 45.44 46.43 46.60 46.53 46.60 46.78 46.63 45.95 45.65 45.60 45.73 45.31 45.30 45.00 45.31 45.66 45.29 44.94 45.86 44.98 44.49 45.21 44.67 43.52 45.28 45.72 46.25 46.60 47.00 47.17 47.20 48.05 48.53 49.02 50.10 50.80 51.64 52.85 54.26 56.88
44.36 43.73 44.68 45.50 45.75 46.15 46.31 46.30 46.35 45.51 45.79 45.52 45.46 45.59 45.13 44.88 45.46 45.76 45.22 44.62 44.53 43.73 43.53 42.46 42.98 42.97 41.82 42.81 45.24 46.07 46.69 47.12 47.24 47.21 47.62 47.58 47.50 48.44 49.99 50.79 51.71 53.20 55.13
43.82 43.85 44.36 45.28 45.21 45.55 46.01 46.15 45.95 45.29 45.37 45.35 45.47 45.29 44.63 44.75 45.75 45.72 45.27 45.73 45.12 44.37 43.58 43.60 43.45 42.72 41.68 42.37 43.80 45.10 45.45 46.15 46.48 47.20 46.92 46.40 46.89 47.79 48.85 49.99 50.95 51.52 53.42
43.51 43.49 43.97 45.20 44.96 45.50 46.16 45.90 45.76 45.71 45.46 45.61 45.02 44.62 44.22 44.90 45.37 45.61 45.40 44.76 44.78 44.60 44.82 44.72 44.26 44.68 44.07 42.17 42.02 41.70 43.09 45.71 46.73 46.22 45.67 46.21 47.16 46.98 48.39 49.32 49.49 49.68 52.01
42.91 42.95 43.47 44.07 44.89 45.31 44.86 43.84 43.56 43.11 44.19 44.51 44.68 44.41 44.02 44.38 44.78 45.01 44.89 44.96 43.62 44.05 44.25 44.48 44.14 43.63 43.01 43.57 42.51 40.60 42.07 46.39 46.33 45.04 45.08 45.50 44.54 46.31 48.03 48.96 49.12 49.60 50.86
42.08 42.43 43.07 43.60 44.10 44.77 45.03 44.52 44.04 43.71 44.32 44.13 44.61 44.46 44.09 43.86 44.23 44.01 44.22 43.97 43.46 43.10 43.92 44.22 43.68 43.20 43.46 42.93 40.49 40.01 36.22 40.98 43.92 44.48 45.87 44.08 43.24 45.68 47.67 48.75 49.01 49.95 50.98
42.89 42.36 42.72 43.37 43.71 44.30 43.81 44.75 44.75 45.70 45.24 44.00 43.33 43.38 43.85 43.66 44.03 44.08 43.99 44.00 43.67 43.35 41.88 42.28 43.46 42.84 41.36 44.17 44.19 40.96 35.89 33.80 37.30 43.27 43.16 43.38 42.10 43.62 47.18 47.61 48.91 50.27 50.80
43.20 42.99 43.40 43.23 43.51 43.77 43.71 43.25 41.95 42.11 41.24 42.65 42.95 43.51 43.78 43.82 43.94 44.16 43.73 43.70 43.45 43.31 42.23 42.27 43.53 42.98 42.28 40.01 41.54 43.83 43.52 40.75 36.41 35.04 41.93 43.36 41.84 42.49 45.30 48.21 49.39 51.67 52.80
43.30 43.21 43.62 43.77 43.42 43.49 43.34 42.87 42.97 42.16 43.21 43.66 43.60 43.07 43.45 43.65 43.93 44.07 44.21 43.84 43.41 43.29 42.73 42.46 41.79 42.46 42.71 40.76 40.99 41.52 39.62 40.41 41.04 37.28 34.50 39.25 40.74 41.25 44.65 48.60 50.40 52.05 53.20
43.50 43.15 43.52 43.34 43.02 43.09 43.09 42.73 42.65 42.27 42.32 42.34 42.53 42.17 42.57 43.16 43.37 44.06 44.08 44.63 44.43 43.58 42.72 42.36 42.01 41.62 40.74 41.68 40.80 40.60 41.00 37.61 38.91 37.36 37.24 38.75 37.85 39.34 42.86 47.10 48.44 49.02 50.83
MSLP
1025.97 1025.92 1025.80 1025.54 1025.40 1025.25 1025.05 1024.83 1024.54 1024.19 1023.81 1023.81 1023.70 1023.75 1023.46 1023.18 1022.95 1022.59 1022.38 1022.03 1021.86 1021.46 1021.02 1020.65 1020.24 1019.93 1019.73 1019.30 1019.01 1018.74 1018.54 1018.24 1018.01 1017.51 1017.44 1017.37 1017.36 1017.08 1016.53 1016.17 1015.94 1015.04 1015.23
1026.31 1026.14 1026.12 1025.83 1025.68 1025.49 1025.25 1025.02 1024.72 1024.37 1023.98 1024.06 1023.85 1023.85 1023.68 1023.42 1023.43 1023.21 1022.77 1022.41 1022.02 1021.72 1021.28 1020.94 1020.50 1020.14 1019.74 1019.36 1018.96 1018.79 1018.53 1018.37 1018.11 1017.70 1017.28 1017.16 1017.24 1017.21 1016.79 1016.37 1016.09 1015.63 1015.40
1026.52 1026.39 1026.12 1026.30 1026.17 1025.94 1025.66 1025.32 1024.97 1024.61 1024.27 1024.20 1024.06 1023.92 1023.69 1023.66 1023.46 1023.29 1022.99 1022.70 1022.29 1021.91 1021.54 1021.11 1020.68 1020.37 1020.03 1019.64 1019.22 1018.89 1018.45 1018.14 1018.01 1017.77 1017.51 1016.95 1017.02 1016.99 1016.88 1016.58 1016.27 1015.80 1015.55
1026.95 1026.82 1026.45 1026.76 1026.57 1026.33 1026.02 1025.69 1025.26 1024.87 1024.65 1024.33 1024.15 1024.09 1024.09 1023.73 1023.60 1023.43 1023.05 1022.73 1022.44 1022.07 1021.80 1021.40 1021.03 1020.64 1020.20 1019.86 1019.52 1019.05 1018.62 1018.46 1018.18 1018.25 1017.50 1017.16 1016.75 1016.96 1016.81 1016.68 1016.35 1015.93 1015.62
1027.27 1027.23 1027.11 1027.14 1026.95 1026.67 1026.32 1025.92 1025.73 1025.41 1025.05 1024.79 1024.71 1024.51 1024.34 1024.08 1023.77 1023.69 1023.30 1022.94 1022.61 1022.48 1022.03 1021.57 1021.18 1020.89 1020.49 1020.04 1019.62 1019.26 1018.92 1018.53 1018.50 1018.54 1017.91 1017.58 1017.36 1016.78 1016.88 1016.67 1016.39 1016.11 1015.70
1027.56 1027.61 1027.62 1027.60 1027.37 1027.07 1026.67 1026.26 1026.08 1025.68 1025.55 1025.32 1025.13 1024.89 1024.70 1024.51 1024.46 1023.96 1023.65 1023.26 1022.99 1022.64 1022.13 1021.87 1021.31 1020.93 1020.58 1020.27 1019.81 1019.35 1018.89 1018.68 1018.61 1018.76 1018.31 1017.84 1017.75 1017.00 1017.09 1016.79 1016.41 1016.11 1015.80
1027.76 1027.89 1027.95 1028.05 1027.78 1027.49 1027.10 1026.69 1026.43 1026.04 1025.94 1025.80 1025.65 1025.52 1025.25 1025.24 1024.88 1024.55 1024.02 1023.67 1023.17 1022.67 1022.37 1021.97 1021.53 1021.13 1020.76 1020.54 1020.00 1019.63 1019.38 1019.00 1018.93 1018.55 1018.53 1018.24 1017.85 1017.66 1017.34 1016.74 1016.30 1015.99 1015.68
1027.82 1028.02 1028.07 1028.12 1028.09 1027.87 1027.46 1027.04 1026.66 1026.44 1026.40 1026.39 1026.25 1025.94 1025.82 1025.78 1025.42 1025.10 1024.63 1024.21 1023.54 1023.10 1022.81 1022.33 1021.68 1021.27 1020.82 1020.55 1020.29 1020.03 1019.86 1019.56 1019.19 1018.56 1018.20 1018.36 1017.84 1017.58 1017.21 1016.78 1016.24 1015.85 1015.52
1028.14 1028.12 1028.05 1028.01 1028.05 1027.95 1027.81 1027.42 1027.17 1026.93 1026.83 1026.78 1026.62 1026.30 1026.16 1025.88 1025.58 1025.18 1024.79 1024.30 1023.71 1023.39 1022.90 1022.34 1021.95 1021.47 1021.03 1020.64 1020.46 1020.48 1020.18 1019.72 1019.18 1018.53 1018.37 1018.04 1017.67 1017.62 1017.32 1016.62 1016.27 1015.77 1015.39
1028.20 1028.25 1028.26 1028.15 1028.02 1027.84 1027.77 1027.84 1027.65 1027.36 1027.15 1027.03 1026.85 1026.56 1026.18 1025.66 1025.38 1024.94 1024.66 1024.31 1023.80 1023.45 1023.03 1022.70 1022.19 1021.89 1021.40 1021.01 1020.92 1020.64 1020.27 1019.78 1018.64 1018.52 1018.11 1017.78 1017.89 1017.83 1017.20 1016.46 1016.03 1015.58 1015.21
1028.13 1028.33 1028.40 1028.33 1028.24 1028.09 1027.70 1027.85 1027.67 1027.46 1027.26 1027.01 1026.68 1026.48 1025.71 1025.28 1025.06 1024.76 1024.73 1024.44 1024.01 1023.60 1023.18 1022.87 1022.47 1022.06 1021.71 1021.09 1020.73 1020.42 1020.07 1018.86 1018.61 1018.23 1017.82 1017.67 1017.82 1017.57 1017.13 1016.56 1015.93 1015.38 1015.09
1028.06 1028.23 1028.42 1028.51 1028.37 1028.16 1027.81 1027.71 1027.53 1027.26 1027.03 1026.88 1026.65 1026.34 1025.89 1025.46 1025.30 1025.04 1024.59 1024.28 1023.82 1023.48 1023.04 1022.64 1022.31 1021.94 1021.28 1020.71 1020.20 1019.94 1019.39 1018.97 1018.48 1017.90 1017.46 1017.49 1017.64 1017.38 1016.85 1016.34 1015.73 1015.23 1014.73
1028.35 1028.41 1028.51 1028.55 1028.51 1028.21 1027.97 1027.76 1027.43 1027.21 1027.06 1026.81 1026.68 1026.52 1026.20 1025.67 1025.15 1024.81 1024.55 1024.07 1023.73 1023.36 1022.85 1022.39 1021.87 1021.45 1021.16 1020.77 1020.27 1019.67 1019.27 1018.87 1018.27 1017.73 1017.23 1017.23 1017.19 1017.00 1016.59 1016.07 1015.51 1015.01 1014.52
1028.23 1028.54 1028.67 1028.77 1028.43 1028.24 1027.93 1027.71 1027.48 1027.23 1027.23 1026.84 1026.80 1026.62 1026.22 1025.76 1025.37 1024.93 1024.56 1024.24 1023.84 1023.38 1022.97 1022.44 1021.93 1021.51 1021.01 1020.54 1020.04 1019.58 1019.17 1018.70 1018.18 1017.63 1017.06 1016.93 1016.85 1016.57 1016.14 1015.69 1015.10 1014.56 1014.21
1028.13 1028.46 1028.64 1028.61 1028.53 1028.34 1027.94 1027.85 1027.54 1027.29 1027.08 1027.03 1026.79 1026.56 1026.25 1025.83 1025.47 1025.08 1024.64 1024.24 1023.85 1023.39 1023.04 1022.53 1022.05 1021.56 1020.99 1020.57 1019.98 1019.34 1018.81 1018.34 1017.87 1017.43 1016.91 1016.54 1016.39 1016.13 1015.81 1015.41 1014.84 1014.14 1013.65
1028.26 1028.42 1028.51 1028.51 1028.66 1028.47 1028.14 1027.99 1027.80 1027.50 1027.31 1027.04 1026.81 1026.65 1026.36 1026.06 1025.58 1025.14 1024.62 1024.16 1023.76 1023.67 1023.54 1022.98 1022.31 1021.75 1021.30 1020.75 1019.87 1019.12 1018.65 1018.08 1017.53 1017.10 1016.57 1016.04 1015.71 1015.56 1015.25 1014.85 1014.53 1013.86 1013.26
1028.26 1028.54 1028.67 1028.59 1028.52 1028.46 1028.21 1028.03 1027.75 1027.47 1027.37 1027.08 1026.91 1026.71 1026.49 1026.19 1025.77 1025.26 1024.67 1024.53 1024.51 1023.88 1023.70 1023.12 1022.40 1022.23 1021.75 1020.74 1019.63 1018.85 1018.27 1017.68 1017.24 1016.87 1016.23 1015.61 1015.08 1014.72 1014.53 1014.38 1014.10 1013.65 1013.02
1028.33 1028.46 1028.68 1028.80 1028.44 1028.28 1028.12 1027.86 1027.61 1027.45 1027.30 1027.11 1026.92 1026.70 1026.54 1026.25 1025.90 1025.32 1024.88 1024.72 1024.65 1024.28 1023.71 1023.23 1022.58 1022.16 1021.73 1020.94 1019.49 1018.57 1017.84 1017.23 1016.72 1016.48 1016.08 1015.47 1015.29 1014.61 1013.95 1013.71 1013.54 1013.21 1012.66
1028.61 1028.66 1028.64 1028.56 1028.33 1028.22 1027.99 1027.72 1027.51 1027.47 1027.28 1027.14 1026.93 1026.70 1026.56 1026.19 1025.92 1025.39 1024.91 1024.39 1024.38 1023.95 1023.45 1022.86 1022.30 1022.01 1021.54 1020.88 1020.00 1019.11 1018.37 1017.34 1016.62 1015.91 1015.59 1015.26 1014.72 1014.33 1013.68 1013.11 1012.82 1012.53 1012.09
1028.69 1028.58 1028.45 1028.26 1028.13 1028.13 1027.89 1027.58 1027.38 1027.21 1027.17 1027.07 1026.97 1026.81 1026.56 1026.22 1025.90 1025.36 1024.78 1024.43 1024.12 1023.63 1023.21 1022.90 1022.51 1021.94 1021.39 1020.91 1020.16 1019.54 1018.58 1017.27 1016.27 1015.56 1015.38 1015.09 1014.48 1014.08 1013.34 1012.46 1012.11 1011.48 1011.19
1028.30 1028.43 1028.36 1028.30 1028.20 1028.13 1027.85 1027.61 1027.43 1027.31 1027.15 1027.03 1027.06 1026.89 1026.64 1026.38 1025.98 1025.42 1024.89 1024.40 1024.24 1023.71 1023.34 1022.91 1022.34 1021.87 1021.40 1020.77 1020.07 1019.24 1018.06 1016.18 1015.58 1015.71 1015.28 1015.16 1014.82 1013.78 1012.71 1011.67 1011.51 1010.96 1010.21
1027.90 1028.01 1028.33 1028.15 1028.15 1028.08 1027.96 1027.92 1027.82 1027.58 1027.36 1027.35 1027.17 1026.94 1026.78 1026.46 1026.10 1025.54 1024.95 1024.31 1024.02 1023.66 1023.15 1022.80 1022.31 1021.65 1021.17 1020.74 1020.31 1019.30 1017.78 1016.58 1015.73 1015.87 1015.12 1015.33 1015.07 1013.93 1012.12 1010.85 1010.62 1010.16 1009.66
1027.44 1027.80 1027.95 1028.03 1028.06 1028.03 1028.11 1027.96 1027.90 1027.71 1027.31 1027.16 1027.12 1026.87 1026.61 1026.38 1025.95 1025.59 1025.02 1024.44 1024.04 1023.63 1023.24 1022.83 1022.37 1021.77 1021.12 1020.21 1019.98 1019.70 1018.72 1017.81 1017.05 1015.63 1015.08 1015.24 1014.99 1013.86 1012.32 1011.41 1010.55 1009.53 1009.01
1027.31 1027.79 1027.94 1027.99 1027.99 1027.96 1028.10 1027.85 1027.83 1027.62 1027.32 1027.32 1027.08 1026.80 1026.50 1026.28 1025.89 1025.55 1025.06 1024.67 1024.18 1023.69 1023.23 1022.77 1021.98 1021.81 1021.33 1020.66 1020.24 1019.54 1019.17 1018.88 1017.86 1016.43 1015.47 1015.22 1014.88 1013.83 1012.62 1011.09 1010.20 1009.11 1008.44
1027.25 1027.53 1027.75 1027.93 1027.95 1028.08 1028.10 1028.08 1028.01 1027.70 1027.53 1027.33 1027.04 1026.76 1026.41 1026.13 1025.89 1025.55 1025.22 1024.83 1024.31 1023.72 1023.27 1022.74 1022.16 1021.68 1021.24 1020.87 1020.37 1019.55 1019.48 1018.65 1018.19 1017.72 1016.14 1015.02 1014.63 1014.16 1012.97 1011.30 1010.41 1009.73 1008.96
1027.14 1027.51 1027.72 1027.81 1027.98 1028.08 1028.04 1028.14 1028.01 1027.76 1027.53 1027.16 1026.82 1026.59 1026.21 1025.98 1025.63 1025.37 1025.22 1024.68 1024.11 1023.63 1023.13 1022.59 1022.18 1021.67 1021.29 1020.75 1020.14 1019.66 1019.07 1019.12 1018.09 1017.67 1016.78 1015.69 1015.47 1014.53 1013.36 1011.78 1011.13 1010.60 1009.93
Wind_Speed
8 8 14 14 16 16 17 19 18 17 15 17 15 15 16 16 17 19 19 18 17 19 19 19 18 18 17 15 17 16 16 17 16 16 14 15 14 16 16 15 15 11 4
6 8 12 16 17 18 18 18 16 15 15 14 15 14 15 14 15 16 17 16 17 17 18 18 19 19 19 16 15 17 15 16 17 17 17 12 10 13 15 16 15 14 12
8 9 10 15 16 17 17 16 17 17 16 15 13 14 15 15 16 16 16 17 17 17 17 18 18 19 18 19 19 16 15 17 16 17 17 10 7 13 15 15 16 14 12
9 9 11 14 15 15 15 13 13 14 15 14 15 15 16 15 15 16 18 17 17 16 17 17 17 18 19 19 19 19 15 16 16 16 11 12 9 11 14 14 16 16 15
8 9 12 14 14 14 14 14 13 11 11 14 14 15 16 18 18 18 18 16 15 15 18 17 17 17 19 19 19 18 18 17 16 15 10 10 11 12 13 16 15 16 16
8 9 11 14 14 14 13 13 12 12 12 12 13 14 15 18 17 17 16 16 15 16 17 19 18 17 17 19 18 19 20 18 18 10 12 11 14 13 16 17 17 17 16
7 8 10 13 14 14 13 13 12 12 12 12 13 14 15 15 16 16 16 15 17 17 18 18 17 18 17 18 19 19 20 21 14 13 8 12 12 17 19 19 18 18 18
7 8 8 9 12 12 12 12 11 12 13 13 13 13 13 13 14 14 15 15 17 17 18 18 18 19 18 18 18 19 21 20 16 14 12 11 16 18 19 20 20 19 19
6 7 8 9 9 8 11 13 12 12 13 12 12 13 13 12 13 12 13 13 15 16 17 17 18 17 18 19 19 19 20 20 15 11 12 10 14 16 21 20 21 21 20
7 7 8 9 9 8 8 11 11 11 12 11 11 13 11 9 11 12 13 15 16 16 16 16 17 18 18 19 19 18 18 19 11 11 10 9 15 17 21 22 22 21 21
6 7 7 8 8 8 6 7 7 9 9 8 9 10 9 8 10 13 13 16 17 16 16 15 16 17 16 14 13 15 18 8 10 9 8 13 17 19 21 22 23 22 20
7 7 7 8 8 8 6 7 7 6 7 7 8 9 8 10 9 10 11 14 15 16 16 15 15 15 12 9 8 11 7 10 10 10 8 16 17 20 22 23 23 24 22
5 6 7 7 7 8 7 6 4 4 5 5 9 9 9 8 8 8 7 8 9 12 8 11 11 8 12 10 9 10 10 11 8 9 11 17 19 20 22 23 23 24 23
5 6 6 7 7 7 5 5 6 5 6 6 7 9 8 6 8 9 7 9 8 8 11 10 8 12 12 13 13 13 13 11 8 8 12 19 19 21 22 23 23 24 24
5 5 6 6 7 7 7 6 6 6 6 8 7 8 8 8 8 9 9 8 8 9 10 10 10 10 11 13 12 13 13 13 13 9 9 20 21 21 22 23 24 24 25
4 5 6 7 6 7 7 7 6 6 7 6 6 8 10 8 9 9 9 9 9 9 10 10 10 10 10 12 13 12 13 13 13 14 11 13 21 21 22 22 23 24 25
5 4 6 6 6 7 7 7 5 5 6 6 6 8 10 10 10 11 8 10 10 9 11 10 11 10 11 12 14 11 11 12 12 15 14 12 14 21 21 21 22 24 26
4 6 5 5 6 7 7 6 5 6 5 6 6 7 10 11 11 9 8 8 9 8 8 7 8 8 9 10 11 11 11 12 13 13 14 12 11 13 16 21 22 24 26
5 6 6 6 7 7 7 6 6 6 5 5 6 7 11 10 11 9 8 8 9 8 8 8 9 9 9 10 11 13 13 12 13 11 13 14 14 13 12 19 22 23 25
3 4 5 4 5 7 5 5 4 4 5 5 6 7 10 8 11 10 8 9 10 8 8 10 12 10 10 9 10 11 12 11 10 9 9 12 13 14 16 16 13 13 22
4 4 4 5 6 5 5 5 5 5 5 5 6 8 9 9 10 10 8 9 10 10 10 11 9 11 9 10 8 8 11 9 7 9 10 8 13 13 17 11 10 9 10
4 4 3 4 4 4 4 4 4 5 4 5 5 7 9 9 9 9 10 9 10 9 10 10 13 8 8 6 6 7 7 10 10 14 8 7 14 13 13 10 11 12 11
6 4 5 4 4 3 5 4 3 2 3 4 6 6 7 8 8 9 10 9 10 9 8 9 10 12 9 11 11 5 4 5 11 6 10 7 13 10 11 8 12 10 11
6 4 5 5 5 3 3 4 5 4 5 5 5 6 7 8 9 9 10 9 10 8 10 10 8 8 8 9 9 5 8 7 4 7 8 7 10 10 14 6 7 7 7
5 5 5 5 5 3 4 4 4 5 4 4 5 7 7 7 8 9 10 10 10 8 9 11 11 10 7 7 10 10 9 8 6 4 8 11 8 9 10 7 8 7 8
6 6 5 6 4 4 4 4 5 6 6 5 6 5 6 6 5 7 10 9 9 9 10 9 9 11 10 9 8 8 7 6 7 2 7 11 9 6 9 7 9 9 8
Wind_Direction
36 11 4 10 5 0 357 354 352 344 359 357 2 3 357 358 359 356 354 353 351 347 344 343 339 344 347 337 331 334 334 330 331 324 328 340 346 345 344 349 345 294 35
25 16 10 9 2 358 354 352 351 347 355 355 351 6 359 357 1 1 353 355 351 350 347 345 340 340 339 346 331 326 331 332 329 329 325 320 329 334 339 346 340 340 323
28 12 357 10 2 357 353 351 349 347 355 359 7 358 4 3 6 1 357 354 350 351 344 346 348 344 336 335 343 343 327 325 324 331 326 296 321 323 327 331 328 328 331
25 12 11 7 4 359 357 353 354 355 359 350 5 7 358 357 3 350 347 348 350 348 343 342 344 342 341 336 331 337 335 349 340 1 332 327 312 310 316 318 322 324 324
31 15 21 11 7 7 2 9 3 1 356 6 3 6 358 359 355 351 352 344 344 347 342 341 344 339 336 341 329 331 336 339 347 351 328 320 318 296 317 308 311 315 317
29 23 27 15 12 11 4 11 3 5 13 11 10 4 355 359 355 350 341 350 345 347 338 339 334 333 335 338 332 326 323 333 338 352 324 321 311 316 311 301 298 298 304
36 26 28 18 16 13 7 12 6 4 14 14 9 356 3 1 350 350 352 350 341 343 340 338 338 330 336 331 330 331 331 324 334 309 311 307 304 316 309 300 295 286 290
30 19 22 28 18 15 10 19 16 19 16 7 7 359 4 359 350 343 348 346 338 342 338 333 331 335 329 324 324 334 328 322 320 304 306 294 295 301 306 297 290 289 284
34 23 22 15 13 26 23 21 10 14 7 5 4 1 357 355 352 349 348 344 344 345 336 336 335 330 328 327 326 326 317 317 309 304 301 294 292 298 298 293 293 284 287
36 28 18 14 15 11 17 18 8 6 3 0 359 358 354 348 355 0 352 352 348 346 348 340 337 334 325 329 321 314 314 307 295 307 291 296 303 294 294 290 291 289 282
39 25 19 12 13 4 4 17 1 3 6 359 357 4 348 360 359 349 351 345 345 344 342 339 338 333 330 311 313 315 310 297 305 297 294 297 301 296 288 287 285 286 285
22 16 13 7 3 356 357 3 2 1 12 12 5 358 355 351 357 342 342 339 339 341 335 336 329 324 318 325 319 310 313 308 301 294 289 296 296 296 292 283 281 281 281
13 11 10 3 358 1 355 342 358 355 360 355 357 356 344 343 343 344 337 341 339 336 333 329 326 326 325 321 316 311 308 308 296 294 293 294 292 294 293 285 278 276 274
13 11 7 3 1 1 349 356 350 348 342 348 345 347 343 342 340 343 336 337 331 333 327 327 325 321 317 315 315 312 307 302 298 296 292 291 292 290 291 288 277 272 274
7 10 13 359 358 356 353 354 349 348 346 341 345 349 345 343 340 337 339 336 332 333 330 328 326 324 319 324 311 312 310 304 299 294 295 293 287 288 286 283 280 270 268
8 13 356 359 5 348 351 354 343 347 344 350 351 355 352 344 340 340 340 339 339 341 340 330 325 326 326 307 314 311 308 303 298 293 291 294 289 285 283 281 277 273 266
15 358 5 354 356 351 348 350 343 354 346 355 354 354 354 349 344 339 341 356 348 337 335 328 338 344 325 324 310 314 308 301 301 300 297 292 292 288 280 276 275 272 269
342 0 349 351 349 352 352 349 352 360 350 354 353 351 358 350 347 341 348 345 345 338 337 332 326 332 325 316 315 318 312 306 303 301 290 293 294 297 290 276 269 268 263
337 344 345 345 350 346 345 343 350 356 358 0 357 357 353 352 351 340 342 338 338 336 329 335 339 335 323 321 323 321 318 310 309 296 302 297 295 285 286 285 273 266 261
316 310 307 323 335 339 334 344 356 354 4 3 1 1 353 354 349 341 339 344 342 337 333 337 330 333 328 317 317 308 308 304 280 291 306 312 311 296 287 280 268 259 247
228 276 301 314 344 339 346 352 351 359 360 2 5 355 357 352 351 346 346 350 342 335 332 323 327 326 323 332 319 313 312 320 333 335 299 326 304 296 286 275 258 255 255
243 240 260 288 316 331 329 346 333 337 349 347 346 352 356 351 351 344 343 345 347 341 334 327 330 333 317 350 311 312 317 325 352 318 324 351 326 310 300 279 251 250 257
225 226 247 275 294 317 330 325 325 309 281 343 355 351 348 350 350 349 345 343 344 343 339 331 322 336 330 336 341 313 323 318 320 319 321 349 322 310 306 310 288 264 260
218 223 241 260 281 300 315 317 332 331 331 351 341 344 347 351 352 352 348 349 344 344 344 342 336 330 336 333 338 311 318 321 306 315 333 339 321 322 321 319 302 302 289
208 222 247 254 258 280 294 319 329 332 335 336 339 338 353 352 351 349 346 340 342 342 347 343 344 343 334 338 331 326 325 305 313 287 310 328 336 332 320 346 351 0 2
202 222 238 258 281 278 291 308 319 323 330 328 337 338 347 348 339 348 348 345 338 337 343 342 343 344 343 330 332 325 325 310 313 300 299 328 329 314 312 4 22 17 17